CZ-3C DEB, 40174

Orbit data source: Space-Track

CZ-3C DEB, 40174 is space debris in HEO originally from a launch on Sun, 31 Oct 2010 UTC launched from the Xichang Space Center, China (XSC). Debris objects in space refer to the collection of defunct objects orbiting the Earth. Examples of debris include non-operational satellites, rocket bodies, and fragments generated from explosions, collisions, or faulty payload assembly.

Loading next visibility...
Identifier
40174, 2010-057AC
Orbit
HEO
Country
Flag of CNCN / PRC
Related business
Manufacturer
CALT
Mission
Spacecraft
Bus & Motor
Unknown
Mass
Unknown
Launch date (UTC)
2010-10-31 (16 years ago)
Launch vehicle
Unknown
Launch site
Xichang Space Center, China (XSC)
Object type
Payload
Rocket body
Debris
Shape & HBR
Unknown shape, 0.2 m
Radar Cross Section
Medium (>0.1 m² and <1 m²)

Expand to show TLE details & history
Last TLE update: 1 day ago

TLE from 1 day ago
0 CZ-3C DEB
1 40174U 10057AC  26170.82431856 -.00000234  00000-0 -58811-3 0  9999
2 40174  20.2053 302.7386 7085937  93.4357  10.0949  2.35046902100565
Epoch: 2026-06-19T19:47Z
TLE epoch observation values (Epoch: 2026-06-19T19:47:01.123Z)
Latitude
6.62127°
Longitude
-100.37022°
Altitude
2,943.852 km
Speed
8.297 km/s
True Right ascension
06h 57m 43s
True Declination
6° 35' 28"
Sunlit
Object was in daylight at epoch
Visualization orbit readout
Latitude
Unknown
Longitude
Unknown
Altitude
Unknown
Speed
Unknown
Apparent Right ascension
Unknown
Apparent Declination
Unknown
Sunlit
N/A
Visualization observer readout
Local Sidereal Time
11:43:28
Azimuth
Unknown
Elevation
Unknown
Doppler factor
Unknown
Orbital elements
Apogee altitude
34,455.323 km
Perigee altitude
586.145 km
Semi-major axis
23,898.871 km
Eccentricity
0.70859
Inclination
20.2053°
RAAN
302.7386°
Arg. of periapsis
93.4357°
True anomaly
67.78779°
Mean anomaly
10.0949°
Eccentric anomaly
31.01312°
Mean motion
0.58746 °/min
Orbital period
612.81 mins
BSTAR
-0.00058811
Loading maneuver chart data...
Computing Atmospheric mass density...
Loading historical data...
Loading historical data...
Loading historical data...
Loading historical data...
Loading historical data...
Loading historical data...
Loading historical data...

Documentation

Showing up to 5 results
|